Location: Gälforsberget
(66.6500°N, 22.4167°E)
Time: 18:45:36
(UTC+00:00)

Cosmos 2322 Rocket - Pass Details

Date: 11 April 2026
Orbit: 832 x 849 km, 71.0° (Epoch: 19 May)

Event Time Altitude Azimuth Distance (km) Brightness Sun altitude
Rises 20:33:11 0° 245° (WSW) 3,379 5.4 -11.8°
Reaches altitude 10° 20:35:38 10° 247° (WSW) 2,447 4.7 -11.9°
Maximum altitude 20:41:15 73° 333° (NNW) 876 2.5 -12.2°
Drops below altitude 10° 20:46:53 10° 59° (ENE) 2,458 4.7 -12.4°
Sets 20:49:21 0° 61° (ENE) 3,395 5.4 -12.5°
